CW0454 Weather Reports


time (UTC)temp
C
wind
direction
speed
KPH
gust
KPH
rain 1hr
cm
rain 24hr
cm
rain mn
cm
humidity
%
barometer
mb
20260510150402 21 7 1.6 4.8 0.00 0.00 0.00 77 1012.5
20260510145401 21 9 1.6 4.8 0.00 0.00 0.00 77 1012.4
20260510144402 20 359 0.0 4.8 0.00 0.00 0.00 78 1012.3
20260510143402 20 36 1.6 4.8 0.00 0.00 0.00 79 1012.2
20260510142401 19 37 1.6 4.8 0.00 0.00 0.00 80 1012.1
20260510141401 18 37 1.6 4.8 0.00 0.00 0.00 82 1012.3
20260510140401 18 38 1.6 4.8 0.00 0.00 0.00 83 1012.5
20260510135401 18 48 1.6 4.8 0.00 0.00 0.00 84 1012.4
20260510133401 17 62 3.2 4.8 0.00 0.00 0.00 86 1012.3
20260510132401 16 62 0.0 3.2 0.00 0.00 0.00 88 1012.3
20260510131402 16 62 0.0 3.2 0.00 0.00 0.00 90 1012.4
20260510130401 15 62 1.6 4.8 0.00 0.00 0.00 91 1012.5
20260510125402 15 66 0.0 3.2 0.00 0.00 0.00 92 1012.7
20260510124401 14 66 1.6 3.2 0.00 0.00 0.00 94 1012.6
20260510123423 13 66 0.0 3.2 0.00 0.00 0.00 95 1012.6
20260510122422 13 66 1.6 3.2 0.00 0.00 0.00 95 1012.7
20260510121402 13 66 0.0 0.0 0.00 0.00 0.00 96 1012.5
20260510120423 12 66 0.0 3.2 0.00 0.00 0.00 95 1012.4
20260510114423 11 67 0.0 0.0 0.00 0.00 0.00 95 1012.2
20260510113401 11 67 0.0 0.0 0.00 0.00 0.00 95 1012.1
20260510112402 11 67 0.0 0.0 0.00 0.00 0.00 95 1012.0
20260510111401 10 67 0.0 0.0 0.00 0.00 0.00 95 1011.9
20260510110402 10 67 0.0 1.6 0.00 0.00 0.00 94 1011.8
20260510105401 10 65 0.0 0.0 0.00 0.00 0.00 94 1011.7
20260510104402 9 65 0.0 0.0 0.00 0.00 0.00 94 1011.3
20260510103402 9 65 0.0 0.0 0.00 0.00 0.00 94 1011.0
20260510102402 9 65 0.0 0.0 0.00 0.00 0.00 94 1010.9
20260510101402 9 65 0.0 0.0 0.00 0.00 0.00 94 1010.9
20260510100402 10 65 0.0 0.0 0.00 0.00 0.00 94 1010.7
20260510095403 10 65 0.0 0.0 0.00 0.00 0.00 94 1010.8
20260510094403 10 65 0.0 0.0 0.00 0.00 0.00 94 1010.9
20260510093402 10 65 0.0 0.0 0.00 0.00 0.00 94 1010.9
20260510092423 10 65 0.0 0.0 0.00 0.00 0.00 94 1010.8
20260510091402 10 65 0.0 0.0 0.00 0.00 0.00 94 1010.7
20260510090403 10 65 0.0 0.0 0.00 0.00 0.00 94 1010.6
20260510085403 10 65 0.0 0.0 0.00 0.00 0.00 93 1010.5
20260510084402 10 65 0.0 0.0 0.00 0.00 0.00 94 1010.4
20260510083423 10 65 0.0 0.0 0.00 0.00 0.00 93 1010.1
20260510082402 10 65 0.0 0.0 0.00 0.00 0.00 93 1010.2
20260510081403 10 65 0.0 0.0 0.00 0.00 0.00 93 1010.1
20260510080403 10 65 0.0 0.0 0.00 0.00 0.00 93 1009.9
20260510075402 10 65 0.0 0.0 0.00 0.00 0.00 93 1009.7
20260510074424 10 65 0.0 0.0 0.00 0.00 0.00 93 1009.6
20260510073403 10 65 0.0 0.0 0.00 0.00 0.00 93 1009.7
20260510072402 10 65 0.0 0.0 0.00 0.00 0.00 93 1009.6
20260510071403 11 65 0.0 0.0 0.00 0.00 0.00 93 1009.8
20260510070403 11 65 0.0 0.0 0.00 0.00 0.00 93 1009.5
20260510065423 11 65 0.0 0.0 0.00 0.00 0.00 93 1009.4
20260510064403 11 65 0.0 0.0 0.00 0.00 0.00 93 1009.3
20260510063402 11 65 0.0 0.0 0.00 0.00 0.00 93 1009.2
20260510062403 11 65 0.0 0.0 0.00 0.00 0.00 92 1009.3
20260510060419 11 65 0.0 0.0 0.00 0.00 0.00 92 1009.3
20260510055358 11 65 0.0 0.0 0.00 0.00 0.00 92 1009.4
20260510054359 12 65 0.0 0.0 0.00 0.00 0.00 92 1009.5
20260510053358 12 65 0.0 0.0 0.00 0.00 0.00 92 1009.5
20260510052359 12 65 0.0 0.0 0.00 0.00 0.00 92 1009.5
20260510051419 12 65 0.0 0.0 0.00 0.00 0.00 92 1009.4
20260510050358 12 65 0.0 0.0 0.00 0.00 0.00 91 1009.5
20260510045359 12 65 0.0 0.0 0.00 0.00 0.00 91 1009.6
20260510044358 12 65 0.0 0.0 0.00 0.00 0.00 91 1009.6
20260510043405 12 65 0.0 0.0 0.00 0.00 0.00 91 1009.7
20260510042400 12 65 0.0 0.0 0.00 0.00 0.00 91 1009.6
20260510041359 12 65 0.0 0.0 0.00 0.00 0.00 90 1009.5
20260510040358 12 65 0.0 0.0 0.00 0.00 0.00 91 1009.5
20260510035400 13 65 0.0 3.2 0.00 0.00 0.00 90 1009.4
20260510034400 13 65 0.0 0.0 0.00 0.00 0.00 90 1009.4
20260510033420 13 65 0.0 0.0 0.00 0.00 0.00 89 1009.4
20260510032359 13 65 0.0 0.0 0.00 0.00 0.00 89 1009.4
20260510031359 13 65 0.0 0.0 0.00 0.00 0.00 89 1009.3
20260510030358 13 65 0.0 1.6 0.00 0.00 0.00 88 1009.1
20260510025359 13 65 0.0 1.6 0.00 0.00 0.00 88 1009.1
20260510024359 14 65 0.0 0.0 0.00 0.00 0.00 87 1009.1
20260510023420 14 65 0.0 0.0 0.00 0.00 0.00 87 1009.2
20260510022359 14 65 0.0 0.0 0.00 0.00 0.00 86 1009.2
20260510021359 15 65 0.0 1.6 0.00 0.00 0.00 86 1009.2
20260510020358 15 65 0.0 3.2 0.00 0.00 0.00 86 1009.2
20260510015359 15 63 0.0 4.8 0.00 0.00 0.00 86 1009.2
20260510014359 15 64 0.0 4.8 0.00 0.00 0.00 86 1009.0
20260510013420 15 69 1.6 8.0 0.00 0.00 0.00 86 1008.9
20260510012359 16 42 3.2 6.4 0.00 0.00 0.00 85 1008.9
20260510011359 16 33 1.6 3.2 0.00 0.00 0.00 84 1008.8
20260510010359 16 35 1.6 6.4 0.00 0.00 0.00 84 1008.7
20260510005359 16 53 0.0 9.7 0.00 0.00 0.00 84 1008.6
20260510004359 16 38 0.0 6.4 0.00 0.00 0.00 82 1008.6
20260510003400 16 46 1.6 4.8 0.00 0.00 0.00 81 1008.3
20260510002359 17 46 1.6 4.8 0.00 0.00 0.00 80 1008.3
20260510001359 17 46 1.6 4.8 0.00 0.00 0.00 79 1008.3
20260510000421 17 46 0.0 1.6 0.00 0.00 0.00 78 1008.2
20260509235400 17 46 0.0 3.2 0.00 0.00 0.00 76 1008.1
20260509234359 18 46 0.0 4.8 0.00 0.00 0.00 75 1008.0
20260509233400 18 46 1.6 3.2 0.00 0.00 0.00 74 1007.9
20260509232422 18 47 1.6 6.4 0.00 0.00 0.00 73 1007.8
20260509231400 19 44 1.6 3.2 0.00 0.00 0.00 73 1007.7
20260509230359 20 42 0.0 6.4 0.00 0.00 0.00 72 1007.7
20260509225400 20 44 3.2 8.0 0.00 0.00 0.00 71 1007.6
20260509224421 20 337 0.0 6.4 0.00 0.00 0.00 70 1007.8
20260509223400 20 331 3.2 12.9 0.00 0.00 0.00 68 1007.9
20260509222400 20 6 6.4 11.3 0.00 0.00 0.00 68 1007.9
20260509221400 21 359 1.6 9.7 0.00 0.00 0.00 68 1007.8
20260509220400 21 338 4.8 8.0 0.00 0.00 0.00 67 1007.8
20260509215401 22 346 1.6 8.0 0.00 0.00 0.00 68 1007.9
20260509214400 22 337 3.2 6.4 0.00 0.00 0.00 67 1007.9
20260509213400 22 349 1.6 4.8 0.00 0.00 0.00 67 1007.9
20260509212400 22 359 3.2 8.0 0.00 0.00 0.00 68 1007.9
20260509211421 22 38 3.2 9.7 0.00 0.00 0.00 67 1007.8
20260509210400 21 11 4.8 11.3 0.00 0.00 0.00 68 1007.7
20260509205421 21 47 3.2 11.3 0.00 0.00 0.00 68 1007.8
20260509204400 21 37 3.2 9.7 0.00 0.00 0.00 68 1007.7
20260509203400 21 33 4.8 8.0 0.00 0.00 0.00 69 1007.6
20260509202400 21 353 4.8 8.0 0.00 0.00 0.00 70 1007.9
20260509200401 21 34 6.4 11.3 0.00 0.00 0.00 70 1008.3
20260509195400 20 24 4.8 8.0 0.00 0.00 0.00 74 1008.3
20260509194401 20 30 1.6 8.0 0.00 0.00 0.00 76 1008.5
20260509193422 19 44 3.2 8.0 0.00 0.00 0.00 76 1008.6
20260509192400 18 36 1.6 12.9 0.00 0.00 0.00 80 1008.6
20260509191400 18 30 1.6 4.8 0.00 0.00 0.00 82 1008.8
20260509190401 17 28 1.6 4.8 0.00 0.00 0.00 81 1008.9
20260509185401 18 28 1.6 4.8 0.00 0.00 0.00 78 1009.1
20260509184400 18 28 1.6 3.2 0.00 0.00 0.00 77 1009.0
20260509183401 18 28 0.0 6.4 0.00 0.00 0.00 76 1009.1
20260509182400 18 29 1.6 6.4 0.00 0.00 0.00 77 1009.2
20260509181400 17 25 1.6 3.2 0.00 0.00 0.00 77 1009.5
20260509180400 17 26 0.0 3.2 0.00 0.00 0.00 77 1009.6
20260509175401 17 25 1.6 3.2 0.00 0.00 0.00 76 1009.6
20260509174422 17 26 0.0 1.6 0.00 0.00 0.00 76 1009.6
20260509173422 17 26 0.0 3.2 0.00 0.00 0.00 75 1009.7
20260509172400 17 26 0.0 3.2 0.00 0.00 0.00 75 1009.7
20260509171401 17 26 1.6 4.8 0.00 0.00 0.00 74 1009.7
20260509170401 18 21 3.2 8.0 0.00 0.00 0.00 74 1009.7
20260509165401 18 359 3.2 8.0 0.00 0.00 0.00 75 1009.7
20260509164402 18 38 3.2 8.0 0.00 0.00 0.00 74 1009.8
20260509163401 18 37 1.6 6.4 0.00 0.00 0.00 73 1009.8
20260509161401 18 74 1.6 4.8 0.00 0.00 0.00 70 1009.9
20260509160401 19 14 3.2 9.7 0.00 0.00 0.00 69 1010.1
20260509155401 20 268 1.6 9.7 0.00 0.00 0.00 67 1010.0
20260509154401 20 47 4.8 12.9 0.00 0.00 0.00 66 1009.9
20260509153401 20 290 4.8 9.7 0.00 0.00 0.00 67 1010.0
20260509152401 20 24 3.2 8.0 0.00 0.00 0.00 68 1010.2
20260509151402 19 264 3.2 4.8 0.00 0.00 0.00 71 1010.3